This is the latest recevied weather packets stored in our database for station/object K6POO-1. If no packets are shown the sender has not sent any weather packets the latest 10 day(s).
| Time | Temp. | Humidity | Pressure | Rain* | Wind** | Luminosity | Snow |
|---|---|---|---|---|---|---|---|
| 1777943604 | 14.44° C | 77% | 1015.3 hPa | 0 mm | - | 124 W/m² | - |
| 1777943300 | 14.44° C | 77% | 1015.2 hPa | 0 mm | - | 145 W/m² | - |
| 1777942996 | 14.44° C | 78% | 1015.3 hPa | 0 mm | - | 150 W/m² | - |
| 1777942692 | 14.44° C | 78% | 1015.4 hPa | 0 mm | - | 134 W/m² | - |
| 1777942389 | 14.44° C | 77% | 1015.3 hPa | 0 mm | - | 117 W/m² | - |
| 1777942087 | 14.44° C | 76% | 1015.5 hPa | 0 mm | - | 126 W/m² | - |
| 1777941783 | 14.44° C | 76% | 1015.3 hPa | 0 mm | - | 127 W/m² | - |
| 1777941481 | 15° C | 76% | 1015.2 hPa | 0 mm | - | 150 W/m² | - |
| 1777941178 | 15° C | 76% | 1015.5 hPa | 0 mm | - | 189 W/m² | - |
| 1777940874 | 14.44° C | 76% | 1015.6 hPa | 0 mm | - | 225 W/m² | - |
| 1777940571 | 15° C | 75% | 1015.5 hPa | 0 mm | - | 186 W/m² | - |
| 1777940269 | 15° C | 75% | 1015.6 hPa | 0 mm | - | 155 W/m² | - |
| 1777939966 | 15° C | 74% | 1015.7 hPa | 0 mm | - | 142 W/m² | - |
| 1777939663 | 15° C | 74% | 1015.7 hPa | 0 mm | - | 152 W/m² | - |
| 1777939361 | 15° C | 74% | 1015.4 hPa | 0 mm | - | 209 W/m² | - |
| 1777939057 | 15° C | 73% | 1015.5 hPa | 0 mm | - | 236 W/m² | - |
| 1777938753 | 15° C | 73% | 1015.5 hPa | 0 mm | - | 272 W/m² | - |
| 1777938451 | 15° C | 72% | 1015.4 hPa | 0 mm | - | 231 W/m² | - |
| 1777938148 | 15.56° C | 72% | 1015.3 hPa | 0 mm | - | 250 W/m² | - |
| 1777937844 | 15.56° C | 71% | 1015.3 hPa | 0 mm | - | 321 W/m² | - |
| 1777937540 | 15° C | 71% | 1015.3 hPa | 0 mm | - | 340 W/m² | - |
| 1777937237 | 15° C | 72% | 1015.3 hPa | 0 mm | - | 374 W/m² | - |
| 1777936934 | 15° C | 71% | 1015.3 hPa | 0 mm | - | 228 W/m² | - |
| 1777936631 | 15° C | 71% | 1015.4 hPa | 0 mm | - | 280 W/m² | - |
| 1777936328 | 15° C | 70% | 1015.6 hPa | 0 mm | - | 269 W/m² | - |
* Rain latest hour (hover to see other rain measurements)
** Current wind speed in m/s (hover to see current wind gust speed)